CZ-2D R/B

Satellite information

Favourite Embed

Satellite Type and Status

ROCKET BODYIN ORBIT

Key statistics

Satellite CZ-2D R/B at a glance.

Uptime

1330

Days in orbit

Revolutions

≈ 14.5

Per day

Orbit

SSO

Sun Synchronous Orbit

Inclination

98.5

Latest

Satellite identification and parameters

Extended collection of information and parameters for CZ-2D R/B.

Object identification

Identified? True

Debris? False

Object name: CZ-2D R/B

International designator: 2022-004B

Object number (NORAD): 51103

Object ID (CCSDS): 51103

Country: PEOPLES REPUBLIC OF CHINA (PRC)

Current information (Y/N): Y

RCS size: LARGE

Orbital parameters

Period: 99.031 minutes

Inclination: 98.5012 deg

SMA: 7090.473 km

Apoapsis: 1077.716 km

Periapsis: 346.96 km

RAAN: 329.9816 deg

Eccentricy: 0.05153081

Argument of periapsis: 144.7033 deg

Mean anomaly: 218.946 deg

Mean motion: 14.54085554 rev/day

Mean motion (dot): 0.0001852 rev/day2

B* drag term: 0.00066617722 1/REarth

Two-line elements (TLE)

Creation date: Sept. 8, 2025, 3:16 a.m.

Reference frame: TEME

Reference center: EARTH

Epoch: Sept. 7, 2025, 6:40 p.m. UTC

TLE line 0: 0 CZ-2D R/B

TLE line 1: 1 51103U 22004B 25250.77779171 .00018520 00000-0 66618-3 0 9994

TLE line 2: 2 51103 98.5012 329.9816 0515308 144.7033 218.9460 14.54085554190505

Live tracking on map

Real-time ground track for satellite CZ-2D R/B.

In-orbit conjunctions

A list of the most updated potential collisions computed for object CZ-2D R/B.

Target Orbit TCA Probability of collision Miss distance Type
DELTA 1 DEB LEO 2025-03-30 16:49:06 0.0001049817 657.0 (m) DEBRIS
CZ-4B DEB LEO 2025-01-25 14:49:49 0.0001421591 304.0 (m) DEBRIS
COSMOS 2266 LEO 2024-10-11 03:57:18 0.00180923 147.0 (m) PAYLOAD

Associated space launch

Chinese satellite declared for technological demonstration purposes, details TBD.

CZ-2D R/B was lifted into orbit during the mission ‘Long March 2D | Shiyan 13’, on board a Long March 2D space rocket.

The launch took place on Jan. 17, 2022, 2:35 a.m. from Launch Complex 9.

For more information about the launch, click the button.

Launch to space Long March 2D | Shiyan 13
Long March 2D | Shiyan 13

Agency: N/A

Status: Launch Successful

Launch date: Jan. 17, 2022, 2:35 a.m. UTC

Rocket: Long March 2D

Launch pad: Launch Complex 9

Location: Taiyuan Satellite Launch Center, People's Republic of China

...

Latest news about this satellite

News about space launch
China launches Long March 2D with Shiyan-13 to start busy year

China successfully kicked off 2022 with the launch of the classified Shiyan-13 payload from the Taiyuan Satellite Launch Center (TSLC) aboard a Chang Zheng 2D (internationally called the Long March 2D).

News about space launch
First Chinese space mission of 2022 rockets into orbit

China launched a Long March 2D rocket Monday with another classified satellite, deploying the spacecraft into a polar orbit on the first of more than 40 Chinese Long March rocket missions planned in 2022.

News about space launch
China’s first launch of 2022 puts classified Shiyan-13 satellite into orbit

A Long March 2D carried the classified Shiyan-13 test satellite into orbit late Sunday, marking the start of what is planned to be a busy year of launches for China.


Newsletter sign-up

Weekly statistics, charts and insights to help you stay on top of the space industry.